When you browse on this site, cookies collect data to enhance your experience and personalize the content and advertising you see.
Visit our Privacy Policy to learn more. By continuing to use the site, you agree to this use of cookies and data.
  • în România
  • Lista ţărilor
  • Pe 7 zile
  • Temperatura apei
  • Hartă satelitară
  • Meteo pe hartă
  • Widget-uri
  • user-avatar
    Intrare

    Meteo pe oră la Orbelyanovka

    Astăzi, 21 Martie, Joi

    Timp Temperatura Precipitaţii Vânt Presiune Umiditate
    00:00 +5°C° 0 mm 2 m/s 734 mmHg 83%
    01:00 +5°C° 0 mm 2 m/s 734 mmHg 84%
    02:00 +4°C° 0 mm 2 m/s 734 mmHg 84%
    03:00 +4°C° 0 mm 2 m/s 733 mmHg 83%
    04:00 +4°C° 0 mm 2 m/s 733 mmHg 83%
    05:00 +4°C° 0 mm 2 m/s 733 mmHg 82%
    06:00 +5°C° 0 mm 1 m/s 734 mmHg 82%
    07:00 +6°C° 0 mm 1 m/s 734 mmHg 75%
    08:00 +8°C° 0 mm 1 m/s 734 mmHg 69%
    09:00 +10°C° 0 mm 1 m/s 734 mmHg 62%
    10:00 +10°C° 0 mm 2 m/s 734 mmHg 59%
    11:00 +12°C° 0 mm 3 m/s 734 mmHg 55%
    12:00 +13°C° 0 mm 3 m/s 734 mmHg 52%
    13:00 +13°C° 0 mm 4 m/s 733 mmHg 51%
    14:00 +14°C° 0 mm 4 m/s 733 mmHg 50%
    15:00 +14°C° 0 mm 5 m/s 733 mmHg 48%
    16:00 +13°C° 0 mm 4 m/s 733 mmHg 52%
    17:00 +12°C° 0 mm 4 m/s 733 mmHg 55%
    18:00 +11°C° 0 mm 4 m/s 733 mmHg 59%
    19:00 +11°C° 0 mm 4 m/s 733 mmHg 63%
    20:00 +10°C° 0 mm 4 m/s 734 mmHg 68%
    21:00 +8°C° 0 mm 4 m/s 734 mmHg 72%
    22:00 +8°C° 0 mm 4 m/s 734 mmHg 73%
    23:00 +7°C° 0 mm 4 m/s 734 mmHg 74%

    Mâine, 22 Martie, Vineri

    Timp Temperatura Precipitaţii Vânt Presiune Umiditate
    00:00 +7°C° 0 mm 4 m/s 734 mmHg 74%
    01:00 +6°C° 0 mm 5 m/s 734 mmHg 76%
    02:00 +6°C° 0 mm 5 m/s 734 mmHg 77%
    03:00 +5°C° 0 mm 5 m/s 734 mmHg 79%
    04:00 +5°C° 0.1 mm 5 m/s 734 mmHg 79%
    05:00 +5°C° 0.1 mm 5 m/s 734 mmHg 80%
    06:00 +4°C° 0.1 mm 6 m/s 734 mmHg 81%
    07:00 +4°C° 0.2 mm 6 m/s 734 mmHg 77%
    08:00 +4°C° 0.2 mm 6 m/s 734 mmHg 73%
    09:00 +4°C° 0.2 mm 6 m/s 734 mmHg 68%
    10:00 +4°C° 0.3 mm 6 m/s 734 mmHg 67%
    11:00 +5°C° 0.3 mm 5 m/s 733 mmHg 65%
    12:00 +6°C° 0.3 mm 5 m/s 733 mmHg 64%
    13:00 +5°C° 0.3 mm 6 m/s 733 mmHg 60%
    14:00 +7°C° 0.3 mm 6 m/s 733 mmHg 57%
    15:00 +8°C° 0.3 mm 7 m/s 732 mmHg 53%
    16:00 +7°C° 0.1 mm 6 m/s 732 mmHg 56%
    17:00 +7°C° 0.1 mm 5 m/s 732 mmHg 58%
    18:00 +6°C° 0.1 mm 4 m/s 732 mmHg 61%
    19:00 +7°C° 0 mm 3 m/s 732 mmHg 64%
    20:00 +5°C° 0 mm 3 m/s 732 mmHg 68%
    21:00 +5°C° 0 mm 2 m/s 732 mmHg 71%
    22:00 +5°C° 0 mm 2 m/s 732 mmHg 74%
    23:00 +5°C° 0 mm 2 m/s 732 mmHg 77%

    Poimâine, 23 Martie, Sâmbătă

    Timp Temperatura Precipitaţii Vânt Presiune Umiditate
    00:00 +5°C° 0 mm 2 m/s 731 mmHg 79%
    01:00 +4°C° 0 mm 2 m/s 731 mmHg 80%
    02:00 +4°C° 0 mm 2 m/s 730 mmHg 81%
    03:00 +4°C° 0 mm 2 m/s 729 mmHg 81%
    04:00 +4°C° 0 mm 2 m/s 729 mmHg 80%
    05:00 +4°C° 0 mm 2 m/s 728 mmHg 78%
    06:00 +4°C° 0 mm 2 m/s 728 mmHg 76%
    07:00 +5°C° 0 mm 2 m/s 728 mmHg 72%
    08:00 +6°C° 0 mm 2 m/s 728 mmHg 69%
    09:00 +7°C° 0 mm 3 m/s 728 mmHg 65%
    10:00 +8°C° 0 mm 3 m/s 727 mmHg 62%
    11:00 +9°C° 0 mm 3 m/s 727 mmHg 59%
    12:00 +10°C° 0 mm 3 m/s 727 mmHg 56%
    13:00 +9°C° 0.6 mm 3 m/s 727 mmHg 61%
    14:00 +7°C° 0.6 mm 4 m/s 726 mmHg 65%
    15:00 +7°C° 0.6 mm 4 m/s 726 mmHg 70%
    16:00 +5°C° 2.6 mm 4 m/s 726 mmHg 76%
    17:00 +3°C° 2.6 mm 4 m/s 727 mmHg 82%
    18:00 +1°C° 2.6 mm 4 m/s 727 mmHg 88%
    19:00 0°C° 0.9 mm 4 m/s 728 mmHg 90%
    20:00 +1°C° 0.9 mm 3 m/s 728 mmHg 92%
    21:00 +2°C° 0.9 mm 2 m/s 729 mmHg 93%
    22:00 +1°C° 0.6 mm 2 m/s 729 mmHg 94%
    23:00 +1°C° 0.6 mm 2 m/s 729 mmHg 95%

    24 Martie, Duminică

    Timp Temperatura Precipitaţii Vânt Presiune Umiditate
    00:00 +2°C° 0.6 mm 1 m/s 729 mmHg 96%
    01:00 +2°C° 0.5 mm 1 m/s 730 mmHg 95%
    02:00 +2°C° 0.5 mm 1 m/s 730 mmHg 95%
    03:00 +1°C° 0.5 mm 1 m/s 730 mmHg 95%
    04:00 +1°C° 0.2 mm 1 m/s 730 mmHg 95%
    05:00 +1°C° 0.2 mm 1 m/s 730 mmHg 95%
    06:00 +1°C° 0.2 mm 1 m/s 731 mmHg 95%
    07:00 +1°C° 0.1 mm 1 m/s 731 mmHg 94%
    08:00 +2°C° 0.1 mm 1 m/s 731 mmHg 94%
    09:00 +2°C° 0.1 mm 1 m/s 731 mmHg 93%
    10:00 +2°C° 0.1 mm 2 m/s 731 mmHg 89%
    11:00 +2°C° 0.1 mm 2 m/s 731 mmHg 85%
    12:00 +3°C° 0.1 mm 2 m/s 731 mmHg 81%
    13:00 +3°C° 0 mm 2 m/s 731 mmHg 76%
    14:00 +5°C° 0 mm 1 m/s 730 mmHg 70%
    15:00 +5°C° 0 mm 1 m/s 730 mmHg 64%
    16:00 +5°C° 0 mm 1 m/s 730 mmHg 66%
    17:00 +5°C° 0 mm 1 m/s 731 mmHg 68%
    18:00 +3°C° 0 mm 2 m/s 731 mmHg 70%
    19:00 +3°C° 0 mm 2 m/s 731 mmHg 72%
    20:00 +2°C° 0 mm 2 m/s 732 mmHg 73%
    21:00 +2°C° 0 mm 2 m/s 732 mmHg 75%
    22:00 0°C° 0 mm 3 m/s 732 mmHg 75%
    23:00 0°C° 0 mm 3 m/s 732 mmHg 75%

    25 Martie, Luni

    Timp Temperatura Precipitaţii Vânt Presiune Umiditate
    00:00 -1°C° 0 mm 3 m/s 732 mmHg 75%
    01:00 -1°C° 0 mm 3 m/s 732 mmHg 75%
    02:00 -1°C° 0 mm 2 m/s 732 mmHg 75%
    03:00 -1°C° 0 mm 2 m/s 732 mmHg 75%
    04:00 -1°C° 0 mm 2 m/s 732 mmHg 74%
    05:00 -2°C° 0 mm 2 m/s 732 mmHg 73%
    06:00 -2°C° 0 mm 2 m/s 732 mmHg 72%
    07:00 +1°C° 0 mm 2 m/s 732 mmHg 67%
    08:00 +2°C° 0 mm 2 m/s 732 mmHg 62%
    09:00 +3°C° 0 mm 3 m/s 732 mmHg 57%
    10:00 +4°C° 0 mm 3 m/s 732 mmHg 55%
    11:00 +5°C° 0 mm 3 m/s 731 mmHg 53%
    12:00 +7°C° 0 mm 3 m/s 731 mmHg 51%
    13:00 +7°C° 0 mm 3 m/s 731 mmHg 51%
    14:00 +8°C° 0 mm 3 m/s 731 mmHg 50%
    15:00 +7°C° 0 mm 4 m/s 731 mmHg 50%
    16:00 +7°C° 0 mm 3 m/s 731 mmHg 55%
    17:00 +7°C° 0 mm 3 m/s 731 mmHg 60%
    18:00 +6°C° 0 mm 2 m/s 731 mmHg 65%
    19:00 +5°C° 0 mm 2 m/s 731 mmHg 69%
    20:00 +5°C° 0 mm 1 m/s 731 mmHg 72%
    21:00 +5°C° 0 mm 1 m/s 732 mmHg 75%
    22:00 +4°C° 0 mm 1 m/s 731 mmHg 76%
    23:00 +4°C° 0 mm 1 m/s 731 mmHg 76%

    26 Martie, Marţi

    Timp Temperatura Precipitaţii Vânt Presiune Umiditate
    00:00 +3°C° 0 mm 1 m/s 731 mmHg 76%
    01:00 +3°C° 0 mm 1 m/s 731 mmHg 76%
    02:00 +3°C° 0 mm 1 m/s 730 mmHg 76%
    03:00 +3°C° 0 mm 1 m/s 730 mmHg 76%
    04:00 +3°C° 0 mm 1 m/s 730 mmHg 75%
    05:00 +2°C° 0 mm 1 m/s 730 mmHg 75%
    06:00 +2°C° 0 mm 1 m/s 730 mmHg 75%
    07:00 +3°C° 0 mm 2 m/s 729 mmHg 69%
    08:00 +4°C° 0 mm 3 m/s 729 mmHg 63%
    09:00 +5°C° 0 mm 4 m/s 729 mmHg 57%
    10:00 +6°C° 0 mm 5 m/s 728 mmHg 55%
    11:00 +7°C° 0 mm 5 m/s 728 mmHg 53%
    12:00 +8°C° 0 mm 6 m/s 728 mmHg 51%
    13:00 +9°C° 0 mm 5 m/s 727 mmHg 51%
    14:00 +10°C° 0 mm 5 m/s 727 mmHg 50%
    15:00 +10°C° 0 mm 5 m/s 727 mmHg 50%
    16:00 +9°C° 0 mm 5 m/s 727 mmHg 54%
    17:00 +10°C° 0 mm 4 m/s 727 mmHg 57%
    18:00 +8°C° 0 mm 4 m/s 727 mmHg 61%
    19:00 +7°C° 0 mm 4 m/s 727 mmHg 63%
    20:00 +6°C° 0 mm 4 m/s 728 mmHg 66%
    21:00 +5°C° 0 mm 3 m/s 728 mmHg 69%
    22:00 +4°C° 0 mm 3 m/s 728 mmHg 70%
    23:00 +4°C° 0 mm 3 m/s 727 mmHg 71%
    Arată mai mult